Theta_e
315 316 317 318 317 318 318 320 323 327 331 333 332 327 328 327 325 324 324 322 317 316 312 304 300 301 302 298 296 295 293 293 293 294 295 294 293 296 296 293 292 293 291
314 315 315 316 316 317 317 319 323 327 330 329 326 322 320 313 313 314 313 315 315 306 301 301 301 300 298 295 294 293 292 291 291 292 293 296 295 293 293 292 291 290 291
311 313 314 315 316 316 317 319 323 327 326 326 325 319 314 309 306 306 308 305 301 300 300 299 300 297 295 293 292 291 291 292 291 290 292 294 294 291 291 291 291 291 288
310 310 313 314 315 317 317 319 322 324 323 323 322 318 311 307 302 300 298 297 298 298 298 297 296 294 292 292 291 290 290 290 290 289 289 288 290 291 291 290 290 288 287
308 309 311 314 316 317 318 320 321 320 319 318 319 313 308 303 299 298 296 296 295 295 295 294 293 292 291 290 290 290 289 288 288 288 288 288 288 288 290 289 289 287 287
308 310 312 313 316 317 319 320 318 316 315 315 314 313 309 301 296 294 294 293 293 292 292 292 291 291 290 290 289 289 288 287 287 286 286 287 288 288 287 288 288 287 287
310 312 313 315 315 315 316 315 315 311 311 311 311 309 304 298 296 295 294 292 291 291 290 291 290 290 290 289 289 288 287 287 286 286 286 286 286 286 286 286 287 287 286
310 312 314 316 315 314 312 311 310 307 308 307 305 303 300 298 296 297 294 293 292 291 290 290 290 289 289 289 288 287 287 286 286 286 285 285 286 286 286 286 286 288 288
307 312 314 315 315 313 311 309 307 305 305 304 302 300 300 300 296 295 294 292 291 290 289 289 289 289 288 288 287 286 286 286 286 286 286 286 286 285 285 285 285 286 287
306 312 315 314 313 311 308 306 305 304 302 301 300 299 298 296 294 293 292 291 290 289 289 289 289 288 288 287 286 286 285 285 286 286 286 285 285 285 285 285 285 285 285
310 314 313 311 308 305 304 302 301 300 298 298 298 297 295 294 293 292 291 290 289 289 289 289 288 287 286 286 286 285 285 286 286 286 285 285 285 285 285 284 284 284 284
313 312 308 305 304 302 300 299 297 296 295 295 295 294 293 292 292 290 289 289 289 288 288 288 287 286 286 285 285 285 286 286 286 286 285 285 284 284 284 284 284 284 284
308 305 304 304 301 299 297 296 294 292 293 293 293 292 291 291 290 289 289 289 288 288 288 287 286 286 285 285 284 286 286 286 286 286 285 284 283 283 283 284 284 284 284
306 305 303 301 298 296 295 293 291 291 291 292 291 291 291 290 289 288 288 288 288 288 287 286 286 285 285 284 284 286 287 286 286 286 284 284 284 283 284 284 285 285 284
306 303 300 298 295 294 293 291 290 290 291 291 291 290 290 289 288 288 288 288 287 287 286 286 285 285 284 284 286 287 287 286 286 285 284 284 284 285 285 285 285 284 285
305 302 299 297 295 293 292 290 290 290 291 291 290 289 288 288 287 287 287 287 286 286 286 285 285 284 284 283 286 287 286 286 285 284 284 284 284 283 284 284 284 285 286
303 300 298 296 294 292 291 290 290 290 291 290 289 288 288 287 287 287 287 286 286 285 285 285 284 283 283 284 285 286 286 285 284 284 284 283 283 284 283 283 284 285 285
303 300 298 295 292 291 291 290 290 290 290 289 288 288 287 287 287 287 286 286 285 285 284 284 283 283 283 283 284 285 285 284 284 284 283 283 283 283 284 284 286 284 283
302 300 296 293 292 291 290 290 289 290 289 288 288 287 287 287 287 286 286 286 285 284 284 283 283 283 282 282 284 284 284 284 284 283 283 283 283 283 284 285 284 283 282
301 297 295 293 291 290 290 290 288 289 288 287 287 286 287 287 287 286 286 285 284 284 283 282 282 282 282 282 283 284 284 284 284 284 283 283 283 283 285 284 283 282 281
298 296 294 293 291 290 290 289 288 287 288 287 286 287 287 287 286 286 285 284 284 283 282 283 282 282 282 281 282 283 284 284 284 283 283 283 283 284 283 283 282 281 283
297 295 292 290 290 290 291 289 287 287 287 286 286 286 286 286 286 285 284 284 283 282 282 282 282 282 281 281 282 283 284 284 284 284 283 283 283 282 281 281 281 282 281
294 293 291 289 289 290 291 288 286 287 286 286 286 286 285 285 285 284 284 283 282 281 282 282 282 282 281 281 281 282 283 283 284 283 283 282 281 280 279 279 280 280 278
291 290 290 290 289 290 289 288 287 287 286 286 285 285 285 285 284 284 283 282 282 282 282 282 282 281 281 281 281 282 283 283 283 282 282 280 279 278 278 278 278 278 278
290 290 289 286 286 287 287 287 287 287 286 285 285 285 284 284 284 283 282 281 281 282 282 282 281 281 281 281 282 283 283 283 282 281 280 278 278 277 277 277 278 278 278
288 286 285 285 284 286 286 286 286 286 286 285 284 284 284 283 283 282 282 281 281 281 281 281 281 281 281 281 282 282 283 282 281 279 277 277 277 277 277 277 277 277 277
Wind_Speed
16 20 23 20 17 18 19 19 19 23 26 28 29 23 24 24 23 24 25 25 20 18 15 15 13 11 8 9 8 7 8 13 18 10 8 3 2 5 7 8 9 5 12
13 13 16 17 17 20 20 20 20 24 27 28 25 23 29 24 26 27 26 23 21 18 16 16 13 10 9 9 9 9 7 9 16 7 2 4 2 2 5 9 5 12 11
18 17 13 20 21 20 23 23 21 25 28 30 31 29 28 28 25 26 25 22 21 20 16 13 12 11 9 10 10 11 10 7 9 12 5 2 2 7 6 5 8 9 17
18 18 16 15 22 28 24 23 22 26 28 31 33 39 28 26 18 28 27 25 20 19 16 12 12 11 10 10 10 9 10 7 6 4 6 2 2 3 5 4 10 5 21
16 18 19 24 27 28 28 26 25 27 28 31 33 30 28 25 31 32 29 25 22 17 15 13 12 11 10 10 8 8 8 7 5 3 3 2 4 3 4 8 11 22 18
15 17 20 20 19 27 26 28 29 27 29 30 32 34 39 38 35 33 31 25 23 19 15 13 12 11 10 8 7 7 6 7 6 4 4 2 2 5 6 6 16 18 16
13 13 11 11 16 23 27 29 30 27 29 30 31 32 35 37 37 35 32 28 23 19 16 13 12 10 8 7 7 6 6 7 7 5 5 3 5 7 10 14 18 12 26
9 12 13 12 21 24 26 26 30 29 29 30 30 32 36 37 35 32 29 25 22 19 16 13 11 8 6 6 6 6 7 7 6 6 7 8 9 10 11 14 18 14 12
11 11 11 15 21 24 27 31 32 31 30 32 33 34 36 35 34 30 26 24 21 18 14 11 9 7 5 5 6 6 7 6 7 9 9 10 12 14 13 14 15 17 13
11 11 12 15 19 22 23 27 31 35 32 33 35 38 38 35 32 29 26 22 19 16 13 10 7 5 5 6 7 7 7 7 9 9 11 12 13 14 15 15 17 18 22
14 13 13 18 22 23 26 28 33 37 34 37 40 40 36 34 30 27 23 20 18 14 11 8 5 5 5 6 7 7 7 9 11 11 11 14 15 14 15 17 18 19 21
13 13 15 18 24 24 26 28 31 35 37 41 42 40 36 32 28 25 22 18 16 12 9 6 5 5 6 7 8 8 9 10 12 13 15 14 16 17 17 17 19 21 23
15 14 15 14 18 24 26 28 30 36 38 42 41 37 34 30 26 23 20 16 13 10 7 5 4 5 6 7 8 8 11 12 13 15 14 16 16 18 18 19 21 23 23
15 15 14 14 20 24 26 29 30 37 38 39 39 36 31 28 25 22 18 15 11 9 6 4 5 6 7 8 10 11 13 13 15 16 17 17 17 19 20 21 23 23 28
13 14 15 15 18 24 26 28 32 33 37 38 36 33 29 26 23 20 17 13 10 7 5 4 5 7 9 10 11 12 14 15 16 18 20 18 19 21 22 23 24 27 26
14 15 16 17 17 24 27 29 31 33 37 36 34 31 28 24 21 18 15 11 8 6 4 5 7 10 11 12 11 13 14 15 15 19 19 20 21 19 23 25 25 27 30
14 15 15 15 21 26 30 30 32 35 34 34 32 29 25 22 18 15 12 9 6 5 5 7 9 11 12 12 12 14 14 15 18 20 21 20 19 23 24 27 28 28 24
15 14 13 18 23 27 28 34 33 33 33 31 29 26 23 21 17 13 10 8 5 5 6 8 11 13 13 13 14 16 15 17 19 21 21 20 22 21 27 30 24 25 26
12 12 20 24 27 29 31 33 30 31 31 29 27 23 21 19 15 12 9 6 5 5 8 10 11 13 14 15 16 16 17 18 20 20 19 21 23 28 29 29 26 29 28
16 20 23 25 27 26 33 31 27 28 25 27 25 21 18 16 13 10 7 5 5 7 9 10 12 13 14 17 16 17 17 18 22 20 21 20 26 28 29 30 27 25 29
21 22 24 24 25 29 31 26 25 22 27 26 23 20 16 14 10 8 6 4 6 7 10 13 13 14 16 18 16 17 18 20 21 23 23 24 26 29 30 29 25 24 29
19 21 22 21 24 29 32 25 22 28 28 25 22 18 15 12 9 6 4 5 7 10 10 14 16 16 20 19 17 17 19 21 23 23 24 26 29 30 29 25 23 25 25
18 20 24 24 21 24 28 27 27 30 28 24 20 17 13 9 6 4 5 6 8 9 11 11 13 17 17 20 19 18 20 23 24 22 27 28 28 27 22 21 24 22 20
16 22 25 23 21 23 26 33 32 29 26 23 19 15 11 8 5 4 5 7 8 9 10 12 15 17 18 17 18 20 23 22 21 24 23 25 24 20 21 21 20 19 20
19 21 22 22 22 28 31 31 29 27 24 21 17 12 8 5 4 4 5 7 8 9 12 13 15 17 18 18 22 24 24 23 25 26 21 20 19 20 20 21 21 22 22
20 22 23 26 26 31 31 28 25 23 23 19 14 10 6 4 4 5 7 6 8 11 10 12 14 18 18 20 22 22 23 26 24 20 18 18 19 20 22 23 24 24 24
Wind_Direction
261 268 272 271 262 250 242 228 216 212 198 190 178 173 170 173 173 171 169 166 163 157 160 146 135 115 90 66 51 43 30 19 14 6 351 8 10 223 235 315 319 331 335
248 251 254 259 250 243 231 221 211 202 197 187 176 169 165 162 159 156 156 158 157 147 150 141 123 100 84 72 62 59 50 34 31 15 336 358 326 343 293 316 348 324 334
238 241 230 228 239 228 216 208 203 195 193 188 175 161 155 148 145 148 146 144 145 144 136 129 110 98 86 80 71 60 55 48 37 44 29 333 322 331 307 288 309 328 321
234 235 236 210 216 223 207 197 192 192 189 186 175 164 154 146 152 148 141 137 138 134 127 120 106 99 89 81 71 61 53 46 37 23 37 31 296 321 309 292 295 305 318
235 234 231 217 210 210 196 185 183 185 183 183 175 156 143 145 148 145 140 137 133 130 125 114 107 100 91 84 73 58 50 47 50 42 9 349 310 259 267 303 309 312 313
230 232 232 222 196 197 187 176 176 178 179 179 171 166 158 150 144 144 141 140 133 130 123 116 109 101 96 87 67 51 44 41 34 24 355 300 303 301 300 295 307 302 314
237 232 198 181 180 176 177 170 172 166 173 174 171 165 154 151 149 149 148 143 136 131 125 121 112 103 91 74 58 43 34 19 8 356 336 299 286 291 291 297 303 302 310
240 225 200 186 178 174 169 162 162 156 164 163 159 157 155 151 151 152 147 143 138 133 129 122 111 102 86 63 44 28 15 360 355 342 326 299 300 298 286 292 308 311 299
216 211 197 184 175 171 167 160 153 148 156 157 153 153 155 151 148 146 144 139 134 129 127 118 110 101 73 47 30 16 1 359 348 334 324 311 307 302 291 283 288 296 306
218 199 181 169 168 162 152 149 150 144 150 151 152 149 149 146 145 143 140 136 131 129 123 117 110 88 56 32 15 7 357 344 338 331 323 317 313 306 299 288 284 281 285
202 184 168 155 146 141 140 138 139 138 139 145 146 145 142 142 141 138 136 133 129 125 122 114 96 71 42 19 5 359 346 338 332 331 321 316 315 305 300 295 290 286 284
166 155 146 142 137 134 135 134 132 132 139 141 142 141 140 139 138 136 133 130 126 124 115 105 81 55 29 8 358 349 340 333 330 329 324 316 315 306 303 299 294 290 286
126 132 134 136 130 130 130 129 130 129 136 140 140 139 138 139 137 134 132 129 126 121 112 93 64 35 13 2 351 338 334 330 329 326 319 314 314 309 305 300 294 290 288
127 137 132 129 127 128 129 127 124 133 137 138 138 139 139 138 136 133 130 128 123 115 103 75 39 16 1 350 345 340 331 325 322 320 317 314 312 308 305 300 301 303 301
136 136 130 128 125 124 123 123 125 132 139 138 138 139 137 136 135 133 129 123 116 106 89 50 20 2 352 346 337 332 325 318 315 316 318 315 311 305 305 305 310 305 300
136 133 129 127 127 129 129 127 130 136 142 139 137 139 137 137 135 129 123 118 111 100 64 21 3 354 348 341 336 328 318 318 315 315 313 311 309 304 309 310 306 302 300
138 133 133 130 133 133 134 133 135 143 141 139 139 140 139 136 131 126 122 119 108 78 37 7 353 349 346 343 332 327 320 318 316 315 313 309 305 309 310 306 304 300 305
136 133 130 126 127 131 130 135 141 142 140 138 140 142 140 133 129 127 123 116 88 48 18 359 350 345 345 340 334 328 319 318 316 314 312 308 309 312 313 311 313 315 310
134 131 133 133 133 133 136 136 137 139 138 140 143 143 139 133 132 127 119 98 65 26 3 356 349 344 343 341 332 330 322 319 313 311 309 315 314 317 316 320 318 313 309
130 130 133 132 132 137 141 136 134 136 137 144 142 139 137 135 133 126 111 80 37 7 355 354 352 347 338 341 333 330 323 319 320 319 317 315 319 318 319 321 319 313 308
130 132 137 138 140 142 140 130 134 131 143 141 137 138 140 134 124 113 96 56 19 5 357 349 347 349 348 340 334 330 326 322 318 319 318 318 319 319 321 318 315 306 312
126 131 125 127 138 143 141 130 126 142 143 141 139 135 132 125 118 104 79 36 11 1 353 346 343 344 346 345 331 328 327 324 323 317 317 315 319 320 318 316 314 315 317
123 128 128 125 131 138 140 129 138 146 144 141 136 134 130 122 115 89 47 19 3 355 350 342 334 335 334 332 335 327 326 325 321 319 316 318 319 318 317 318 317 318 318
118 124 123 123 120 130 138 139 145 146 145 139 137 134 129 120 96 49 20 8 356 353 344 340 334 327 325 324 326 327 325 322 323 322 321 318 317 316 316 321 322 321 319
117 124 123 117 112 130 134 142 146 149 141 137 135 133 126 110 77 28 8 357 359 352 338 334 326 322 319 323 326 326 321 328 324 324 319 322 325 324 324 323 322 323 321
114 110 111 114 120 129 135 142 148 150 141 135 135 131 119 89 35 9 360 6 358 348 339 331 328 321 317 323 325 324 326 325 323 323 322 321 321 321 321 320 318 319 317